Time,TemperatureF,DewpointF,PressureIn,WindDirection,WindDirectionDegrees,WindSpeedMPH,WindSpeedGustMPH,Humidity,HourlyPrecipIn,Conditions,Clouds,dailyrainin,SoftwareType,DateUTC
2013-07-25 00:22:00,86.0,58.0,29.26,SSE,149,4.0,-999.0,39,0.00,,,0.01,,2013-07-25 07:22:00,
2013-07-25 00:32:00,86.0,58.0,29.26,SSE,149,4.0,-999.0,39,0.00,,,0.01,,2013-07-25 07:32:00,
2013-07-25 00:43:00,86.0,58.0,29.26,SSE,149,4.0,-999.0,39,0.00,,,0.01,,2013-07-25 07:43:00,
2013-07-25 01:12:00,84.0,56.0,29.26,NNE,23,6.0,-999.0,38,0.00,,,0.01,,2013-07-25 08:12:00,
2013-07-25 01:22:00,84.0,56.0,29.26,NNE,23,6.0,-999.0,38,0.00,,,0.01,,2013-07-25 08:22:00,
2013-07-25 01:32:00,84.0,56.0,29.26,NNE,23,6.0,-999.0,38,0.00,,,0.01,,2013-07-25 08:32:00,
2013-07-25 01:44:00,84.0,56.0,29.26,NNE,23,6.0,-999.0,38,0.00,,,0.01,,2013-07-25 08:44:00,
2013-07-25 02:12:00,84.0,54.0,29.26,South,181,4.0,-999.0,35,0.00,,,0.01,,2013-07-25 09:12:00,
2013-07-25 02:22:00,84.0,54.0,29.26,South,181,4.0,-999.0,35,0.00,,,0.01,,2013-07-25 09:22:00,
2013-07-25 02:33:00,84.0,54.0,29.26,South,181,4.0,-999.0,35,0.00,,,0.01,,2013-07-25 09:33:00,
2013-07-25 02:43:00,84.0,54.0,29.26,South,181,4.0,-999.0,35,0.00,,,0.01,,2013-07-25 09:43:00,
2013-07-25 03:12:00,83.0,55.0,29.27,NW,306,3.0,-999.0,39,0.00,,,0.01,,2013-07-25 10:12:00,
2013-07-25 03:22:00,83.0,55.0,29.27,NW,306,3.0,-999.0,39,0.00,,,0.01,,2013-07-25 10:22:00,
2013-07-25 03:32:00,83.0,55.0,29.27,NW,306,3.0,-999.0,39,0.00,,,0.01,,2013-07-25 10:32:00,
2013-07-25 03:42:00,83.0,55.0,29.27,NW,306,3.0,-999.0,39,0.00,,,0.01,,2013-07-25 10:42:00,
2013-07-25 04:12:00,81.0,58.0,29.27,SSE,153,4.0,-999.0,45,-99.99,,,0.00,,2013-07-25 11:12:00,
2013-07-25 04:22:00,81.0,58.0,29.27,SSE,153,4.0,-999.0,45,-99.99,,,0.00,,2013-07-25 11:22:00,
2013-07-25 04:32:00,81.0,58.0,29.27,SSE,153,4.0,-999.0,45,-99.99,,,0.00,,2013-07-25 11:32:00,
2013-07-25 04:43:00,81.0,58.0,29.27,SSE,153,4.0,-999.0,45,-99.99,,,0.00,,2013-07-25 11:43:00,
2013-07-25 05:22:00,80.0,56.0,29.26,South,181,3.0,-999.0,43,0.00,,,0.00,,2013-07-25 12:22:00,
2013-07-25 05:32:00,80.0,56.0,29.26,South,181,3.0,-999.0,43,0.00,,,0.00,,2013-07-25 12:32:00,
2013-07-25 05:44:00,80.0,56.0,29.26,South,181,3.0,-999.0,43,0.00,,,0.00,,2013-07-25 12:44:00,
2013-07-25 06:22:00,80.0,57.0,29.27,SSE,147,4.0,-999.0,45,0.00,,,0.00,,2013-07-25 13:22:00,
2013-07-25 06:32:00,80.0,57.0,29.27,SSE,147,4.0,-999.0,45,0.00,,,0.00,,2013-07-25 13:32:00,
2013-07-25 06:42:00,80.0,57.0,29.27,SSE,147,4.0,-999.0,45,0.00,,,0.00,,2013-07-25 13:42:00,
2013-07-25 07:22:00,79.0,57.0,29.29,SSW,202,3.0,-999.0,47,0.00,,,0.01,,2013-07-25 14:22:00,
2013-07-25 07:33:00,79.0,57.0,29.29,SSW,202,3.0,-999.0,47,0.00,,,0.01,,2013-07-25 14:33:00,
2013-07-25 07:43:00,79.0,57.0,29.29,SSW,202,3.0,-999.0,47,0.00,,,0.01,,2013-07-25 14:43:00,
2013-07-25 08:43:00,84.0,55.0,29.31,East,85,3.0,-999.0,37,0.00,,,-99.99,,2013-07-25 15:43:00,
2013-07-25 08:45:00,86.0,54.0,29.31,West,276,1.0,-999.0,34,0.00,,,0.00,,2013-07-25 15:45:00,
2013-07-25 09:22:00,86.0,54.0,29.31,West,276,1.0,-999.0,34,0.00,,,0.00,,2013-07-25 16:22:00,
2013-07-25 09:33:00,86.0,54.0,29.31,West,276,1.0,-999.0,34,0.00,,,0.00,,2013-07-25 16:33:00,
2013-07-25 10:22:00,92.0,55.0,29.31,NW,310,4.0,-999.0,29,0.00,,,0.00,,2013-07-25 17:22:00,
2013-07-25 10:32:00,92.0,55.0,29.31,NW,310,4.0,-999.0,29,0.00,,,0.00,,2013-07-25 17:32:00,
2013-07-25 10:43:00,92.0,55.0,29.31,NW,310,4.0,-999.0,29,0.00,,,0.00,,2013-07-25 17:43:00,
2013-07-25 11:22:00,92.0,55.0,29.32,WNW,287,5.0,-999.0,29,0.01,,,0.01,,2013-07-25 18:22:00,
2013-07-25 11:33:00,92.0,55.0,29.32,WNW,287,5.0,-999.0,29,0.01,,,0.01,,2013-07-25 18:33:00,
2013-07-25 11:43:00,92.0,55.0,29.32,WNW,287,5.0,-999.0,29,0.01,,,0.01,,2013-07-25 18:43:00,
2013-07-25 12:12:00,95.0,56.0,29.32,NW,310,4.0,-999.0,27,0.00,,,0.01,,2013-07-25 19:12:00,
2013-07-25 12:22:00,95.0,56.0,29.32,NW,310,4.0,-999.0,27,0.00,,,0.01,,2013-07-25 19:22:00,
2013-07-25 12:33:00,95.0,56.0,29.32,NW,310,4.0,-999.0,27,0.00,,,0.01,,2013-07-25 19:33:00,
2013-07-25 12:42:00,95.0,56.0,29.32,NW,310,4.0,-999.0,27,0.00,,,0.01,,2013-07-25 19:42:00,
2013-07-25 13:12:00,97.0,57.0,29.31,West,269,5.0,-999.0,26,0.00,,,-99.99,,2013-07-25 20:12:00,
2013-07-25 13:22:00,97.0,57.0,29.31,West,269,5.0,-999.0,26,0.00,,,-99.99,,2013-07-25 20:22:00,
2013-07-25 13:32:00,97.0,57.0,29.31,West,269,5.0,-999.0,26,0.00,,,-99.99,,2013-07-25 20:32:00,
2013-07-25 13:43:00,97.0,57.0,29.31,West,269,5.0,-999.0,26,0.00,,,-99.99,,2013-07-25 20:43:00,
2013-07-25 14:12:00,98.0,55.0,29.30,West,266,6.0,-999.0,24,0.00,,,0.00,,2013-07-25 21:12:00,
2013-07-25 14:22:00,98.0,55.0,29.30,West,266,6.0,-999.0,24,0.00,,,0.00,,2013-07-25 21:22:00,
2013-07-25 14:32:00,98.0,55.0,29.30,West,266,6.0,-999.0,24,0.00,,,0.00,,2013-07-25 21:32:00,
2013-07-25 14:44:00,98.0,55.0,29.30,West,266,6.0,-999.0,24,0.00,,,0.00,,2013-07-25 21:44:00,
2013-07-25 15:12:00,102.0,54.0,29.29,SW,236,2.0,-999.0,21,0.00,,,0.00,,2013-07-25 22:12:00,
2013-07-25 15:22:00,102.0,54.0,29.29,SW,236,2.0,-999.0,21,0.00,,,0.00,,2013-07-25 22:22:00,
2013-07-25 15:32:00,102.0,54.0,29.29,SW,236,2.0,-999.0,21,0.00,,,0.00,,2013-07-25 22:32:00,
2013-07-25 15:43:00,102.0,54.0,29.29,SW,236,2.0,-999.0,21,0.00,,,0.00,,2013-07-25 22:43:00,
2013-07-25 17:12:00,101.0,54.0,29.25,West,259,7.0,-999.0,21,-99.99,,,0.01,,2013-07-26 00:12:00,
2013-07-25 17:22:00,101.0,54.0,29.25,West,259,7.0,-999.0,21,-99.99,,,0.01,,2013-07-26 00:22:00,
2013-07-25 17:32:00,101.0,54.0,29.25,West,259,7.0,-999.0,21,-99.99,,,0.01,,2013-07-26 00:32:00,
2013-07-25 17:43:00,101.0,54.0,29.25,West,259,7.0,-999.0,21,-99.99,,,0.01,,2013-07-26 00:43:00,
2013-07-25 18:22:00,102.0,55.0,29.25,West,279,3.0,-999.0,21,0.00,,,0.01,,2013-07-26 01:22:00,
2013-07-25 18:32:00,102.0,55.0,29.25,West,279,3.0,-999.0,21,0.00,,,0.01,,2013-07-26 01:32:00,
2013-07-25 18:43:00,102.0,55.0,29.25,West,279,3.0,-999.0,21,0.00,,,0.01,,2013-07-26 01:43:00,
2013-07-25 19:12:00,99.0,55.0,29.25,West,274,4.0,-999.0,23,0.00,,,-99.99,,2013-07-26 02:12:00,
2013-07-25 19:22:00,99.0,55.0,29.25,West,274,4.0,-999.0,23,0.00,,,-99.99,,2013-07-26 02:22:00,
2013-07-25 19:32:00,99.0,55.0,29.25,West,274,4.0,-999.0,23,0.00,,,-99.99,,2013-07-26 02:32:00,
2013-07-25 19:43:00,99.0,55.0,29.25,West,274,4.0,-999.0,23,0.00,,,-99.99,,2013-07-26 02:43:00,
2013-07-25 20:12:00,97.0,53.0,29.26,South,184,4.0,-999.0,23,-99.99,,,0.00,,2013-07-26 03:12:00,
2013-07-25 20:22:00,97.0,53.0,29.26,South,184,4.0,-999.0,23,-99.99,,,0.00,,2013-07-26 03:22:00,
2013-07-25 20:32:00,97.0,53.0,29.26,South,184,4.0,-999.0,23,-99.99,,,0.00,,2013-07-26 03:32:00,
2013-07-25 20:43:00,97.0,53.0,29.26,South,184,4.0,-999.0,23,-99.99,,,0.00,,2013-07-26 03:43:00,
2013-07-25 21:22:00,93.0,54.0,29.27,WSW,246,1.0,-999.0,27,0.00,,,0.00,,2013-07-26 04:22:00,
2013-07-25 21:32:00,93.0,54.0,29.27,WSW,246,1.0,-999.0,27,0.00,,,0.00,,2013-07-26 04:32:00,
2013-07-25 21:42:00,93.0,54.0,29.27,WSW,246,1.0,-999.0,27,0.00,,,0.00,,2013-07-26 04:42:00,
2013-07-25 23:12:00,90.0,55.0,29.32,SE,125,4.0,-999.0,31,-99.99,,,0.00,,2013-07-26 06:12:00,
2013-07-25 23:22:00,90.0,55.0,29.32,SE,125,4.0,-999.0,31,-99.99,,,0.00,,2013-07-26 06:22:00,
2013-07-25 23:33:00,90.0,55.0,29.32,SE,125,4.0,-999.0,31,-99.99,,,0.00,,2013-07-26 06:33:00,
2013-07-25 23:43:00,90.0,55.0,29.32,SE,125,4.0,-999.0,31,-99.99,,,0.00,,2013-07-26 06:43:00,